Regional Weather Roundup
Issued by NWS

Home | Current Version | Previous Version | Text Only | Print | Product List | Glossary On
Versions: 1 2 3 4 5 6 7 8 9 10 11 12 13 14 15 16 17 18 19 20 21 22 23 24 25 26 27 28 29 30 31 32 33 34 35 36 37 38 39 40 41 42 43 44 45 46 47 48 49 50
000
ASUS45 KCYS 020810
RWRWY

WYOMING REGIONAL WEATHER ROUNDUP
NATIONAL WEATHER SERVICE CHEYENNE WY
200 AM MDT THU JUL 02 2015

NOTE:  "FAIR" INDICATES FEW OR NO CLOUDS BELOW 12,000 FEET
WITH NO SIGNIFICANT WEATHER AND/OR OBSTRUCTIONS TO VISIBILITY.

WYZ001-020900-
YELLOWSTONE NATIONAL PARK

CITY           SKY/WX    TMP DP  RH WIND       PRES   REMARKS
LK YELLOWSTONE   N/A     50  41  71 NW5       30.36S
W YELLOWSTONE  NOT AVBL

$$
WYZ002>013-054>058-071-098>099-020900-
NORTHERN WYOMING

CITY           SKY/WX    TMP DP  RH WIND       PRES   REMARKS
JACKSON        FAIR      54  46  76 N6        30.23S
CODY           FAIR      66  46  48 NW6       30.20S
GREYBULL       FAIR      74  46  36 NW21      30.06R
WORLAND        MOCLDY    70  52  52 N7G18     30.09R
SHERIDAN       FAIR      60  55  83 CALM      30.13R
BUFFALO        FAIR      61  56  83 W5        30.18F
GILLETTE       CLOUDY    61  58  90 W8        30.15R
NEWCASTLE      NOT AVBL

$$
WYZ014>020-022>026-101>103-020900-
CENTRAL WYOMING

CITY           SKY/WX    TMP DP  RH WIND       PRES   REMARKS
BIG PINEY      FAIR      59  36  42 S3        30.27S
PINEDALE       FAIR      52  41  66 W5        30.28S
DUBOIS         NOT AVBL
LANDER         FAIR      67  51  56 W10       30.17S
RIVERTON       FAIR      66  51  58 N9        30.17S
CASPER         CLOUDY    64  57  78 NE10      30.20R
DOUGLAS        MOCLDY    65  56  72 VRB3      30.19R

$$
WYZ021-027>030-104>119-020900-
SOUTHERN WYOMING

CITY           SKY/WX    TMP DP  RH WIND       PRES   REMARKS
EVANSTON       FAIR      68  41  37 CALM      30.28S
FORT BRIDGER   SUNNY     66  39  37 W8        30.29S
ROCK SPRINGS   FAIR      64  50  60 NE9       30.23S
RAWLINS        FAIR      56  53  90 NW5       30.24R
LARAMIE        FAIR      51  49  92 E8        30.24S
CHEYENNE       FAIR      60  53  77 W9        30.14S
TORRINGTON     MOCLDY    61  58  90 NE26G39   30.13R

$$


USA.gov is the U.S. government's official web portal to all federal, state and local government web resources and services.